CZ-7A R/B, 100173

Orbit data source: Space-Track

CZ-7A R/B, 100173 is space debris in HEO originally from a launch on Wed, 29 Jul 2026 UTC launched from the Wenchang Satellite Launch Center (WSC). Debris objects in space refer to the collection of defunct objects orbiting the Earth. Examples of debris include non-operational satellites, rocket bodies, and fragments generated from explosions, collisions, or faulty payload assembly.

Loading next visibility...
Identifier
100173, 2026-172B
Orbit
HEO
Country
Flag of CNCN / PRC
Related business
Manufacturer
CALT
Mission
Spacecraft
Bus & Motor
CZ-3A STAGE 3, Unknown motor
Mass
~2,800 kg wet, ~2,800 kg dry
Launch date (UTC)
2026-07-29 (2 weeks ago)
Launch vehicle
Unknown
Launch site
Wenchang Satellite Launch Center (WSC)
Object type
Payload
Rocket body
Debris
Shape & HBR
CYL, 8.0 m
Radar Cross Section
Large (>1 m²)

Expand to show TLE details & history
Last TLE update: 6 days ago

TLE from 6 days ago
0 CZ-7A R/B
1 A0173U 26172B   26221.91326750  .00147862  94668-6  24260-2 0  9998
2 A0173  15.4520 140.5842 7211714 188.0097 146.3723  2.42008571   296
Epoch: 2026-08-09T21:55Z
TLE epoch observation values (Epoch: 2026-08-09T21:55:06.312Z)
Latitude
0.00016°
Longitude
-146.59586°
Altitude
32,987.1 km
Speed
1.801 km/s
True Right ascension
09h 22m 20s
True Declination
0° 00' 01"
Sunlit
Object was in daylight at epoch
Visualization orbit readout
Latitude
Unknown
Longitude
Unknown
Altitude
Unknown
Speed
Unknown
Apparent Right ascension
Unknown
Apparent Declination
Unknown
Sunlit
N/A
Visualization observer readout
Local Sidereal Time
13:17:06
Azimuth
Unknown
Elevation
Unknown
Doppler factor
Unknown
Orbital elements
Apogee altitude
33,964.66 km
Perigee altitude
157.369 km
Semi-major axis
23,439.152 km
Eccentricity
0.72117
Inclination
15.452°
RAAN
140.5842°
Arg. of periapsis
188.0097°
True anomaly
172.00514°
Mean anomaly
146.3723°
Eccentric anomaly
160.30066°
Mean motion
0.60483 °/min
Orbital period
595.21 mins
BSTAR
0.002426
Loading maneuver chart data...
Computing Atmospheric mass density...
Loading historical data...
Loading historical data...
Loading historical data...
Loading historical data...
Loading historical data...
Loading historical data...
Loading historical data...
Other satellites on launch #172 in the year 2026 (2026-07-29 UTC)

Documentation

Showing up to 5 results
|